Regional Weather Roundup
Issued by NWS Northern Indiana

Home | Current Version | Previous Version | Graphics & Text | Print | Product List | Glossary On
Versions: 1 2 3 4 5 6 7 8 9 10 11 12 13 14 15 16 17 18 19 20 21 22 23 24 25 26 27 28 29 30 31 32 33 34 35 36 37 38 39 40 41 42 43 44 45 46 47 48 49 50
000
ASUS43 KIWX 292110
RWRIWX

KIWX WEATHER ROUNDUP
NATIONAL WEATHER SERVICE NORTHERN INDIANA
500 PM EDT FRI AUG 29 2014

NOTE: "FAIR" INDICATES FEW OR NO CLOUDS BELOW 12,000 FEET WITH NO
SIGNIFICANT WEATHER AND/OR OBSTRUCTIONS TO VISIBILITY.

* THESE STATIONS ARE NOT UNDER NWS QUALITY CONTROL. THEY ALSO MAY NOT
  REPORT WEATHER SUCH AS PRECIPITATION OR FOG.

INZ001>027-292200-
NORTHERN INDIANA

CITY           SKY/WX    TMP DP  RH WIND       PRES   REMARKS
GARY*          CLOUDY    82  72  69 SW8       29.93F
VALPARAISO     MOSUNNY   80  71  74 SE9       29.96F
MICHIGAN CITY* MOSUNNY   79  68  69 S8        29.96S
LAPORTE*       PTSUNNY   78  71  81 SE9G16    29.97F
KNOX*          MOSUNNY   80  71  72 SE9G18    29.95F
SOUTH BEND     LGT RAIN  76  73  91 SE12      29.98F
ELKHART*       LGT RAIN  77  72  83 CALM      29.99F
GOSHEN         PTSUNNY   81  70  69 SE8       29.99F
MONTICELLO*    SUNNY     85  74  70 E7        29.94F
LOGANSPORT*    SUNNY     81  68  65 SE9       29.97F
ROCHESTER*     PTSUNNY   84  72  65 SE8       29.98F
WARSAW*        PTSUNNY   81  70  69 SE6       30.00S
ANGOLA*        SUNNY     82  68  61 S9        30.02S
FORT WAYNE     PTSUNNY   81  69  67 SE8       30.02S
HUNTINGTON*    MOSUNNY   82  70  68 SE7       30.00S
PERU/GRISSOM   SUNNY     82  73  75 SE7       29.98F
MARION*        SUNNY     83  67  58 SE7       30.00F

$$
INZ028>050-292200-
CENTRAL INDIANA

CITY           SKY/WX    TMP DP  RH WIND       PRES   REMARKS
LAFAYETTE      MOSUNNY   84  73  69 S14       29.93F
KOKOMO*        SUNNY     82  70  65 SE10      29.98F
MUNCIE*        SUNNY     83  69  62 SE10      30.01S
INDIANAPOLIS   MOSUNNY   86  71  60 SE14      29.95F

$$
MIZ043>046-050>051-056>058-064>065-071>073-077>080-292200-
SOUTHWEST LOWER MICHIGAN

CITY           SKY/WX    TMP DP  RH WIND       PRES   REMARKS
BATTLE CREEK   CLOUDY    80  66  62 SE10      30.01F
BENTON HARBOR  PTSUNNY   82  71  69 SE10      29.96F
COLDWATER*     MOSUNNY   82  66  58 SE7       30.01S
HILLSDALE*     MOSUNNY   83  64  52 S7        30.04S
HOLLAND        CLOUDY    76  71  85 SE12      29.96F
GRAND RAPIDS   LGT RAIN  71  71 100 SE8       29.99F
KALAMAZOO      PTSUNNY   80  67  64 SE3       30.00F THUNDER
STURGIS*       PTSUNNY   81  70  69 SE7       29.99F
THREE RIVERS*  PTSUNNY   81  69  65 S6        30.00S

$$
OHZ001>008-015>018-024>025-292200-
NORTHWEST OHIO

CITY           SKY/WX    TMP DP  RH WIND       PRES   REMARKS
WAUSEON*       FAIR      82  64  54 SE7       30.03F
DEFIANCE       MOSUNNY   84  65  52 SE6       30.02F
FINDLAY        SUNNY     83  64  52 S9        30.03F
TOLEDO EXPRESS MOSUNNY   82  62  50 E8        30.03F
TOLEDO METCALF SUNNY     82  60  47 SE10      30.05F
LIMA           SUNNY     83  66  56 SE8       30.04F

$$
&&


USA.gov is the U.S. government's official web portal to all federal, state and local government web resources and services.